Time,TemperatureF,DewpointF,PressureIn,WindDirection,WindDirectionDegrees,WindSpeedMPH,WindSpeedGustMPH,Humidity,HourlyPrecipIn,Conditions,Clouds,dailyrainin,SoftwareType,DateUTC
2013-05-07 00:00:00,46.0,34.0,-100.00,North,-999,-999.0,-999.0,63,0.00,,,-99.99,,2013-05-07 07:00:00,
2013-05-07 01:00:00,45.0,34.0,-100.00,North,-999,-999.0,-999.0,64,0.00,,,-99.99,,2013-05-07 08:00:00,
2013-05-07 02:00:00,45.0,34.0,-100.00,North,-999,-999.0,-999.0,64,0.00,,,-99.99,,2013-05-07 09:00:00,
2013-05-07 03:00:00,45.0,33.0,-100.00,North,-999,-999.0,-999.0,63,0.00,,,-99.99,,2013-05-07 10:00:00,
2013-05-07 04:00:00,44.0,32.0,-100.00,North,-999,-999.0,-999.0,62,0.00,,,-99.99,,2013-05-07 11:00:00,
2013-05-07 05:00:00,44.0,32.0,-100.00,North,-999,-999.0,-999.0,63,0.00,,,-99.99,,2013-05-07 12:00:00,
2013-05-07 06:00:00,45.0,32.0,-100.00,North,-999,-999.0,-999.0,59,0.00,,,-99.99,,2013-05-07 13:00:00,
2013-05-07 07:00:00,46.0,34.0,-100.00,North,-999,-999.0,-999.0,62,0.00,,,-99.99,,2013-05-07 14:00:00,
2013-05-07 10:00:00,53.0,42.0,-100.00,North,-999,-999.0,-999.0,65,0.00,,,-99.99,,2013-05-07 17:00:00,
2013-05-07 11:00:00,58.0,44.0,-100.00,North,-999,-999.0,-999.0,59,0.00,,,-99.99,,2013-05-07 18:00:00,
2013-05-07 12:00:00,62.0,43.0,-100.00,North,-999,-999.0,-999.0,50,0.00,,,-99.99,,2013-05-07 19:00:00,
2013-05-07 13:00:00,60.0,41.0,-100.00,North,-999,-999.0,-999.0,50,0.00,,,-99.99,,2013-05-07 20:00:00,
2013-05-07 14:00:00,60.0,37.0,-100.00,North,-999,-999.0,-999.0,43,0.00,,,-99.99,,2013-05-07 21:00:00,
2013-05-07 15:00:00,62.0,42.0,-100.00,North,-999,-999.0,-999.0,47,0.00,,,-99.99,,2013-05-07 22:00:00,
2013-05-07 16:00:00,62.0,32.0,-100.00,North,-999,-999.0,-999.0,32,0.00,,,-99.99,,2013-05-07 23:00:00,
2013-05-07 17:00:00,60.0,39.0,-100.00,North,-999,-999.0,-999.0,46,0.00,,,-99.99,,2013-05-08 00:00:00,
2013-05-07 18:00:00,54.0,38.0,-100.00,North,-999,-999.0,-999.0,55,0.00,,,-99.99,,2013-05-08 01:00:00,
2013-05-07 19:00:00,49.0,38.0,-100.00,North,-999,-999.0,-999.0,65,0.00,,,-99.99,,2013-05-08 02:00:00,
2013-05-07 20:00:00,45.0,35.0,-100.00,North,-999,-999.0,-999.0,68,0.00,,,-99.99,,2013-05-08 03:00:00,
2013-05-07 21:00:00,45.0,34.0,-100.00,North,-999,-999.0,-999.0,65,0.00,,,-99.99,,2013-05-08 04:00:00,
2013-05-07 22:00:00,44.0,34.0,-100.00,North,-999,-999.0,-999.0,68,0.00,,,-99.99,,2013-05-08 05:00:00,
2013-05-07 23:00:00,45.0,33.0,-100.00,North,-999,-999.0,-999.0,63,0.00,,,-99.99,,2013-05-08 06:00:00,